This demonstration page uses our WeatherBlox Daily Observations layout. Learn more.

Left ArrowRight Arrow

Hourly Observations for November 14, 2022

Temp ( °F °C ) Dew Point ( °F °C ) Humidity (%) Winds ( mph kmh ) Pressure ( in mb ) Visibility ( mi km ) Precip ( " mm )
12:55 am 00:55 Cloudy 33 0.5 19 -7.3 56 56 ESE 10 17 30.21 1023 10 16 0.00 0.00
1:55 am 01:55 Cloudy 33 0.5 19 -7.3 56 56 ESE 9 15 30.20 1023 10 16 0.00 0.00
2:55 am 02:55 Cloudy 33 0.5 19 -7.3 56 56 ESE 9 15 30.19 1022 10 16 0.00 0.00
3:55 am 03:55 Cloudy 33 0.3 19 -7.2 57 57 ESE 7 11 30.19 1023 10 16 0.00 0.00
4:55 am 04:55 Cloudy 32 0.2 19 -7.1 58 58 ESE 5 7 30.19 1023 10 16 0.00 0.00
5:55 am 05:55 Cloudy 34 0.9 19 -7.1 55 55 S 3 6 30.20 1023 10 16 0.00 0.00
6:55 am 06:55 Mostly Clear 31 -0.5 19 -7.3 60 60 SE 3 6 30.20 1023 10 16 0.00 0.00
7:55 am 07:55 Partly Cloudy 31 -0.7 20 -6.7 64 64 SE 5 7 30.21 1023 10 16 0.00 0.00
8:55 am 08:55 Mostly Cloudy 33 0.4 21 -6 62 62 Calm 30.23 1024 10 16 0.00 0.00
9:55 am 09:55 Mostly Cloudy 35 1.6 21 -6.2 56 56 WNW 6 9 30.22 1024 10 16 0.00 0.00
10:55 am 10:55 Mostly Cloudy 35 1.8 21 -6.3 55 55 WNW 10 17 30.22 1024 10 16 0.00 0.00
11:55 am 11:55 Cloudy 33 0.7 22 -5.8 62 62 WNW 12 19 30.21 1023 10 16 0.00 0.00
12:55 pm 12:55 Cloudy 33 0.5 22 -5.5 64 64 WNW 7 11 30.21 1023 10 16 0.00 0.00
1:55 pm 13:55 Cloudy 33 0.6 23 -5.2 65 65 WNW 9 15 30.19 1023 10 16 0.00 0.00
2:55 pm 14:55 Cloudy 33 0.5 22 -5.5 64 64 NNW 8 13 30.18 1022 10 16 0.00 0.00
3:55 pm 15:55 Cloudy 33 0.5 22 -5.7 63 63 N 7 11 30.18 1022 10 16 0.00 0.00
4:18 pm 16:18 Cloudy with Light Snow 32 0 21 -6 64 64 N 8 13 30.19 1022 10 16 0.00 0.00
4:55 pm 16:55 Cloudy with Light Snow 31 -0.3 21 -6.3 64 64 N 7 11 30.20 1023 10 16 0.01 0.13
5:26 pm 17:26 Cloudy 32 0 21 -6 64 64 N 5 7 30.22 1023 10 16 0.00 0.00
5:55 pm 17:55 Cloudy 31 -0.3 20 -6.5 63 63 N 8 13 30.23 1024 10 16 0.01 0.13
6:07 pm 18:07 Cloudy with Light Snow 32 0 21 -6 64 64 NNW 8 13 30.22 1023 10 16 0.00 0.00
6:55 pm 18:55 Cloudy with Light Snow 32 -0.2 21 -6.2 64 64 N 7 11 30.24 1024 10 16 0.01 0.13
7:55 pm 19:55 Cloudy with Light Snow 32 -0.2 21 -6 65 65 NNE 3 6 30.26 1025 10 16 0.01 0.13
8:55 pm 20:55 Cloudy 31 -0.3 21 -6.1 65 65 N 3 6 30.27 1025 10 16 0.00 0.00
9:32 pm 21:32 Cloudy 32 0 21 -6 64 64 NNE 5 7 30.27 1025 10 16 0.00 0.00
9:55 pm 21:55 Cloudy 31 -0.3 21 -6.3 64 64 N 6 9 30.27 1025 10 16 0.01 0.13
10:55 pm 22:55 Cloudy 31 -0.4 20 -6.4 64 64 N 6 9 30.27 1025 10 16 0.01 0.13
11:55 pm 23:55 Cloudy 31 -0.6 22 -5.8 68 68 N 7 11 30.26 1025 10 16 0.00 0.00

Powered by AerisWeather